Weather in Mokpo

South Korea     34°48′15″N   126°23′08″E
temp.,
°C
wind,
m/s
gust,
m/s
humid.,
%
clouds,
%
prec.,
mm/h
press.,
hPa
HPBL,
m
28 november, sun
sun2800:00+8ese22540 0.0 1035203
03:00+7ene33610 0.0 1034148
06:00+7ene23570 0.0 1034143
09:00+8ese225397 0.0 1035181
12:00+10ene2346100 0.0 1034332
15:00+12wnw2141100 0.0 1032339
18:00+11nw1143100 0.0 1032225
21:00+10ene2249100 0.0 1032180
29 november, mon
mon2900:00+9e225294 0.0 1031119
03:00+9e22605 0.0 1030131
06:00+8ene225992 0.0 1029121
09:00+9ene335394 0.0 1030130
12:00+12ene22445 0.0 1028267
15:00+13wsw225387 0.0 1025241
18:00+13se23665 0.0 102569
21:00+12ese4670100 0.0 1024175
30 november, tue
tue3000:00+12se41179100 0.0 1021346
03:00+13se61088100 0.1 1017278
06:00+15ssw121891100 4.0 1013835
09:00+12wnw101587100 17.9 1014879
12:00+12w111480100 2.1 10121181
15:00+10wnw151769100 3.0 10131571
18:00+9nw161863100 0.6 10161956
21:00+8nw151862100 0.8 10182125
1 december, wed
wed100:00+7nw15186595 0.3 10192029
03:00+7nw141759100 0.7 10202181
06:00+7nw131658100 0.1 10212069
09:00+7nw131662100 0.3 10232133
12:00+8nw121564100 0.3 10232031
15:00+8nw121559100 0.4 10222113
18:00+8nnw121454100 0.0 10231953
21:00+8nnw10125570 0.1 10241635
2 december, thu
thu200:00+8nnw8115678 0.0 10231515
03:00+8nnw71057100 0.1 10221453
06:00+9nw795792 0.0 10211359
09:00+10wnw785558 0.1 10221493
12:00+11w895375 0.1 10201859
15:00+11w101157100 0.1 10181765
18:00+11w1011556 0.1 10181605
21:00+11w11125778 0.1 10181686